| time (UTC) | temp F | wind direction | speed MPH | gust MPH | rain 1hr in | rain 24hr in | rain mn in | humidity % | barometer mb |
| 20260510194542 | 59 | 141 | 12.0 | 22.0 | 0.00 | 0.08 | 0.08 | 60 | 1021.5 |
| 20260510193036 | 60 | 238 | 10.0 | 29.0 | 0.00 | 0.08 | 0.08 | 61 | 1021.7 |
| 20260510191539 | 61 | 170 | 16.0 | 25.0 | 0.00 | 0.08 | 0.08 | 61 | 1021.9 |
| 20260510190045 | 61 | 193 | 12.0 | 27.0 | 0.00 | 0.08 | 0.08 | 61 | 1022.1 |
| 20260510184531 | 61 | 234 | 6.0 | 18.0 | 0.00 | 0.08 | 0.08 | 58 | 1022.3 |
| 20260510183029 | 59 | 263 | 6.0 | 17.0 | 0.00 | 0.08 | 0.08 | 59 | 1022.6 |
| 20260510181535 | 59 | 233 | 8.0 | 18.0 | 0.00 | 0.08 | 0.08 | 60 | 1023.0 |
| 20260510180026 | 60 | 254 | 4.0 | 20.0 | 0.01 | 0.08 | 0.08 | 58 | 1023.2 |
| 20260510174520 | 60 | 150 | 11.0 | 26.0 | 0.01 | 0.08 | 0.08 | 60 | 1023.1 |
| 20260510173017 | 60 | 253 | 7.0 | 23.0 | 0.01 | 0.08 | 0.08 | 61 | 1022.7 |
| 20260510171514 | 60 | 205 | 5.0 | 21.0 | 0.01 | 0.08 | 0.08 | 67 | 1023.0 |
| 20260510170010 | 59 | 211 | 5.0 | 10.0 | 0.00 | 0.07 | 0.07 | 74 | 1022.8 |
| 20260510164504 | 56 | 173 | 5.0 | 13.0 | 0.00 | 0.07 | 0.07 | 78 | 1023.1 |
| 20260510163059 | 55 | 196 | 3.0 | 10.0 | 0.00 | 0.07 | 0.07 | 79 | 1023.5 |
| 20260510161555 | 53 | 186 | 4.0 | 18.0 | 0.00 | 0.07 | 0.07 | 81 | 1023.9 |
| 20260510160154 | 53 | 219 | 3.0 | 9.0 | 0.00 | 0.07 | 0.07 | 82 | 1024.0 |
| 20260510154619 | 53 | 200 | 6.0 | 12.0 | 0.00 | 0.07 | 0.07 | 82 | 1024.1 |
| 20260510153100 | 53 | 218 | 5.0 | 16.0 | 0.00 | 0.07 | 0.07 | 82 | 1024.3 |
| 20260510151546 | 54 | 243 | 9.0 | 14.0 | 0.00 | 0.07 | 0.07 | 82 | 1024.3 |
| 20260510150053 | 53 | 298 | 7.0 | 13.0 | 0.00 | 0.07 | 0.07 | 83 | 1024.4 |
| 20260510144557 | 52 | 231 | 7.0 | 16.0 | 0.00 | 0.07 | 0.07 | 85 | 1024.4 |
| 20260510143034 | 51 | 223 | 5.0 | 10.0 | 0.00 | 0.07 | 0.07 | 85 | 1024.5 |
| 20260510141532 | 51 | 212 | 7.0 | 13.0 | 0.00 | 0.07 | 0.07 | 86 | 1024.6 |
| 20260510140027 | 51 | 232 | 7.0 | 10.0 | 0.00 | 0.07 | 0.07 | 87 | 1024.7 |
| 20260510134523 | 49 | 213 | 2.0 | 4.0 | 0.00 | 0.07 | 0.07 | 88 | 1024.7 |
| 20260510133020 | 49 | 215 | 0.0 | 2.0 | 0.01 | 0.07 | 0.07 | 89 | 1024.7 |
| 20260510131514 | 48 | 215 | 1.0 | 3.0 | 0.02 | 0.07 | 0.07 | 89 | 1024.9 |
| 20260510130009 | 47 | 200 | 2.0 | 10.0 | 0.02 | 0.07 | 0.07 | 89 | 1025.0 |
| 20260510124505 | 47 | 209 | 3.0 | 8.0 | 0.02 | 0.07 | 0.07 | 90 | 1024.9 |
| 20260510123002 | 46 | 223 | 4.0 | 10.0 | 0.01 | 0.06 | 0.06 | 91 | 1024.9 |
| 20260510121501 | 46 | 228 | 5.0 | 10.0 | 0.01 | 0.06 | 0.06 | 92 | 1024.9 |
| 20260510120057 | 46 | 229 | 2.0 | 8.0 | 0.01 | 0.06 | 0.06 | 92 | 1024.9 |
| 20260510114555 | 45 | 234 | 1.0 | 2.0 | 0.00 | 0.05 | 0.05 | 92 | 1024.7 |
| 20260510113050 | 44 | 234 | 0.0 | 1.0 | 0.00 | 0.05 | 0.05 | 92 | 1024.6 |
| 20260510111549 | 44 | 234 | 0.0 | 2.0 | 0.00 | 0.05 | 0.05 | 92 | 1024.4 |
| 20260510110042 | 44 | 234 | 0.0 | 2.0 | 0.00 | 0.05 | 0.05 | 92 | 1024.3 |
| 20260510104552 | 43 | 234 | 0.0 | 2.0 | 0.00 | 0.05 | 0.05 | 92 | 1024.2 |
| 20260510103035 | 43 | 234 | 0.0 | 1.0 | 0.00 | 0.05 | 0.05 | 92 | 1024.2 |
| 20260510101532 | 43 | 234 | 0.0 | 1.0 | 0.00 | 0.05 | 0.05 | 92 | 1023.9 |
| 20260510100028 | 42 | 234 | 0.0 | 0.0 | 0.00 | 0.05 | 0.05 | 92 | 1023.7 |
| 20260510094528 | 42 | 234 | 0.0 | 3.0 | 0.00 | 0.05 | 0.05 | 92 | 1023.6 |
| 20260510093021 | 42 | 234 | 0.0 | 1.0 | 0.00 | 0.05 | 0.05 | 92 | 1023.2 |
| 20260510091525 | 42 | 234 | 0.0 | 1.0 | 0.01 | 0.05 | 0.05 | 91 | 1023.2 |
| 20260510090015 | 42 | 234 | 0.0 | 0.0 | 0.01 | 0.05 | 0.05 | 91 | 1023.0 |
| 20260510084530 | 41 | 234 | 0.0 | 1.0 | 0.01 | 0.05 | 0.05 | 91 | 1023.0 |
| 20260510083008 | 41 | 234 | 0.0 | 1.0 | 0.01 | 0.05 | 0.05 | 91 | 1022.8 |
| 20260510081512 | 41 | 234 | 0.0 | 1.0 | 0.01 | 0.04 | 0.04 | 91 | 1022.8 |
| 20260510080004 | 42 | 234 | 1.0 | 2.0 | 0.01 | 0.04 | 0.04 | 91 | 1022.5 |
| 20260510074502 | 41 | 234 | 0.0 | 0.0 | 0.02 | 0.04 | 0.04 | 90 | 1022.4 |
| 20260510073059 | 41 | 234 | 0.0 | 1.0 | 0.02 | 0.04 | 0.04 | 90 | 1022.4 |
| 20260510071558 | 41 | 234 | 0.0 | 1.0 | 0.03 | 0.03 | 0.03 | 90 | 1022.4 |
| 20260510070055 | 41 | 234 | 0.0 | 1.0 | 0.03 | 0.03 | 0.03 | 90 | 1022.4 |
| 20260510064553 | 41 | 234 | 0.0 | 2.0 | 0.02 | 0.02 | 0.02 | 89 | 1022.3 |
| 20260510063049 | 41 | 234 | 0.0 | 2.0 | 0.02 | 0.02 | 0.02 | 89 | 1022.1 |
| 20260510061555 | 41 | 234 | 1.0 | 2.0 | 0.00 | 0.00 | 0.00 | 88 | 1022.0 |
| 20260510060046 | 42 | 234 | 0.0 | 2.0 | 0.00 | 0.00 | 0.00 | 88 | 1021.8 |
| 20260510054539 | 41 | 234 | 2.0 | 5.0 | 0.00 | 0.00 | 0.00 | 88 | 1021.9 |
| 20260510053036 | 40 | 237 | 0.0 | 1.0 | 0.00 | 0.00 | 0.00 | 88 | 1021.7 |
| 20260510051532 | 40 | 237 | 0.0 | 1.0 | 0.00 | 0.00 | 0.00 | 88 | 1021.5 |
| 20260510050029 | 40 | 237 | 0.0 | 2.0 | 0.00 | 0.00 | 0.00 | 88 | 1021.2 |
| 20260510044525 | 40 | 237 | 0.0 | 2.0 | 0.00 | 0.00 | 0.00 | 88 | 1021.1 |
| 20260510043022 | 40 | 237 | 0.0 | 2.0 | 0.00 | 0.00 | 0.00 | 88 | 1020.8 |
| 20260510041527 | 40 | 237 | 0.0 | 0.0 | 0.00 | 0.00 | 0.00 | 88 | 1020.9 |
| 20260510040017 | 39 | 237 | 0.0 | 0.0 | 0.00 | 0.00 | 0.00 | 88 | 1021.0 |
| 20260510034514 | 39 | 237 | 0.0 | 0.0 | 0.00 | 0.00 | 0.00 | 89 | 1021.2 |
| 20260510033010 | 39 | 237 | 0.0 | 1.0 | 0.00 | 0.00 | 0.00 | 88 | 1020.9 |
| 20260510031508 | 38 | 237 | 0.0 | 1.0 | 0.00 | 0.00 | 0.00 | 88 | 1020.8 |
| 20260510030006 | 38 | 237 | 0.0 | 1.0 | 0.00 | 0.00 | 0.00 | 88 | 1020.8 |
| 20260510024502 | 38 | 237 | 0.0 | 2.0 | 0.00 | 0.00 | 0.00 | 87 | 1020.9 |
| 20260510023001 | 38 | 237 | 0.0 | 1.0 | 0.00 | 0.00 | 0.00 | 87 | 1020.9 |
| 20260510021558 | 39 | 237 | 0.0 | 1.0 | 0.00 | 0.00 | 0.00 | 86 | 1020.6 |
| 20260510020057 | 40 | 237 | 0.0 | 1.0 | 0.00 | 0.00 | 0.00 | 86 | 1020.6 |
| 20260510014559 | 40 | 237 | 0.0 | 1.0 | 0.00 | 0.00 | 0.00 | 85 | 1020.5 |
| 20260510013104 | 41 | 237 | 0.0 | 1.0 | 0.00 | 0.00 | 0.00 | 85 | 1020.5 |
| 20260510011549 | 42 | 237 | 0.0 | 2.0 | 0.00 | 0.00 | 0.00 | 84 | 1020.4 |
| 20260510010047 | 43 | 237 | 0.0 | 1.0 | 0.00 | 0.00 | 0.00 | 82 | 1020.4 |
| 20260510004545 | 44 | 237 | 0.0 | 2.0 | 0.00 | 0.00 | 0.00 | 81 | 1020.4 |
| 20260510003041 | 45 | 237 | 0.0 | 3.0 | 0.00 | 0.00 | 0.00 | 79 | 1020.1 |
| 20260510001540 | 46 | 236 | 0.0 | 1.0 | 0.00 | 0.00 | 0.00 | 77 | 1020.0 |
| 20260510000037 | 48 | 236 | 0.0 | 3.0 | 0.00 | 0.00 | 0.00 | 75 | 1019.6 |
| 20260509234536 | 50 | 236 | 2.0 | 3.0 | 0.00 | 0.00 | 0.00 | 71 | 1019.2 |
| 20260509233026 | 50 | 240 | 2.0 | 5.0 | 0.00 | 0.00 | 0.00 | 68 | 1019.0 |
| 20260509231522 | 50 | 220 | 2.0 | 8.0 | 0.00 | 0.00 | 0.00 | 67 | 1018.7 |
| 20260509230019 | 48 | 180 | 2.0 | 5.0 | 0.00 | 0.00 | 0.00 | 73 | 1018.3 |
| 20260509224514 | 49 | 216 | 0.0 | 1.0 | 0.00 | 0.00 | 0.00 | 72 | 1017.8 |
| 20260509223015 | 48 | 216 | 0.0 | 1.0 | 0.00 | 0.00 | 0.00 | 70 | 1017.7 |
| 20260509221509 | 48 | 216 | 0.0 | 2.0 | 0.00 | 0.00 | 0.00 | 70 | 1017.5 |
| 20260509220011 | 49 | 216 | 0.0 | 1.0 | 0.00 | 0.00 | 0.00 | 69 | 1017.2 |
| 20260509214504 | 50 | 216 | 0.0 | 2.0 | 0.00 | 0.00 | 0.00 | 61 | 1017.1 |
| 20260509213101 | 52 | 216 | 0.0 | 3.0 | 0.00 | 0.00 | 0.00 | 59 | 1016.9 |
| 20260509211556 | 54 | 216 | 2.0 | 3.0 | 0.00 | 0.00 | 0.00 | 55 | 1016.6 |
| 20260509210106 | 56 | 215 | 1.0 | 6.0 | 0.00 | 0.00 | 0.00 | 44 | 1016.6 |
| 20260509204554 | 58 | 182 | 3.0 | 8.0 | 0.00 | 0.00 | 0.00 | 43 | 1016.6 |
| 20260509203048 | 58 | 309 | 4.0 | 8.0 | 0.00 | 0.00 | 0.00 | 42 | 1016.4 |
| 20260509201544 | 57 | 295 | 4.0 | 12.0 | 0.00 | 0.00 | 0.00 | 42 | 1016.2 |
| 20260509200047 | 57 | 211 | 5.0 | 8.0 | 0.00 | 0.00 | 0.00 | 46 | 1016.2 |